Zurück zum Katalog

STARLINK-11291

AktivKommunikationVLEO
NORAD 61208·PAYLOAD·🇺🇸 United States

Gestartet Sep 20, 2024 von Vandenberg Space Force Base

Loading…

Nächste Überflüge (nächste 24 Stunden)

TLE

AktuellSource: CelesTrak SupGP

Epoche: Sep 15, 2026, 02:15 UTC

1 61208C 24171J   26258.09423611  .00041409  00000+0  34113-3 0  2581
2 61208  53.1568 322.2978 0001190  80.7664 165.1647 15.69686448    10

Verfolge STARLINK-11291 in Echtzeit mit AllMySat

Download on the App Store